Tanana, AK

10:19 AM AKDT on July 26, 2017 (GMT -0800)
Calhoun Memorial

Weather History for PATA - September, 2012

Change the Weather History Date:

Friday, September 28, 2012

  Actual Average Record
Temperature  
Mean Temperature 34 °F -  
Max Temperature 36 °F 41 °F 58 °F (1966)
Min Temperature 33 °F 26 °F -32 °F (1971)
Degree Days  
Heating Degree Days 30    
Moisture  
Dew Point 33 °F    
Average Humidity 93    
Maximum Humidity 100    
Minimum Humidity 87    
Precipitation  
Precipitation 0.06 in - - ()
Sea Level Pressure  
Sea Level Pressure 29.34 in    
Wind  
Wind Speed 5 mph (SW)    
Max Wind Speed 8 mph    
Max Gust Speed -    
Visibility 7 miles    
Events Rain , Snow    
Averages and records for this station are not official NWS values.
T = Trace of Precipitation, MM = Missing Value Source: NWS Daily Summary

Daily Weather History Graph

Daily Weather History Graph

Search for Another Location

Airport or City:

Trip Planner

Search our weather history database for the weather conditions in past years. The results will help you decide how hot, cold, wet, or windy it might be!

Date:

Astronomy

Sep. 28, 2012 Rise Set
Actual Time 8:11 AM AKDT 7:44 PM AKDT
Civil Twilight 7:21 AM AKDT 8:33 PM AKDT
Nautical Twilight 6:22 AM AKDT 9:32 PM AKDT
Astronomical Twilight 5:17 AM AKDT 10:37 PM AKDT
Moon 6:52 PM AKDT (9/28) 6:41 AM AKDT (9/28)
Length of Visible Light 13h 11m
Length of Day
11h 33m
Waxing Gibbous, 98% of the Moon is Illuminated
Sep 28
Waxing Gibbous
Sep 29
Full
Oct 7
Last Quarter
Oct 15
New
Oct 21
First Quarter

Hourly Weather History & Observations

Time (AKDT) Temp. Windchill Dew Point Humidity Pressure Visibility Wind Dir Wind Speed Gust Speed Precip Events Conditions
12:52 AM 36.0 °F 31.1 °F 34.0 °F 93% 29.18 in 10.0 mi SW 5.8 mph - 0.00 in   Overcast
1:52 AM 36.0 °F 31.1 °F 34.0 °F 93% 29.18 in 10.0 mi West 5.8 mph - 0.01 in Rain Light Rain
2:52 AM 35.1 °F 31.0 °F 33.1 °F 92% 29.20 in 10.0 mi Variable 4.6 mph - 0.00 in   Overcast
3:52 AM 35.1 °F 29.3 °F 33.1 °F 92% 29.21 in 10.0 mi SW 6.9 mph - N/A   Overcast
4:52 AM 34.0 °F 31.0 °F 33.1 °F 96% 29.21 in 8.0 mi Variable 3.5 mph - N/A   Overcast
5:52 AM 34.0 °F 29.8 °F 33.1 °F 96% 29.21 in 8.0 mi WSW 4.6 mph - 0.00 in Rain Light Rain
6:03 AM 33.8 °F 30.8 °F 33.8 °F 100% 29.20 in 10.0 mi West 3.5 mph - 0.00 in Rain Light Rain
6:43 AM 35.6 °F 31.7 °F 33.8 °F 93% 29.20 in 10.0 mi West 4.6 mph - 0.00 in   Overcast
6:52 AM 35.1 °F 30.1 °F 33.1 °F 92% 29.22 in 10.0 mi West 5.8 mph - 0.00 in   Overcast
7:52 AM 35.1 °F 30.1 °F 33.1 °F 92% 29.22 in 10.0 mi West 5.8 mph - N/A   Overcast
7:59 AM 35.6 °F 30.7 °F 32.0 °F 87% 29.21 in 10.0 mi West 5.8 mph - N/A   Overcast
8:52 AM 35.1 °F 30.1 °F 33.1 °F 92% 29.24 in 9.0 mi West 5.8 mph - 0.00 in Snow Light Snow
9:00 AM 35.6 °F 30.7 °F 33.8 °F 93% 29.22 in 7.0 mi West 5.8 mph - 0.00 in Snow Light Snow
9:57 AM 34.0 °F 28.8 °F 32.0 °F 92% 29.25 in 6.0 mi West 5.8 mph - 0.01 in Snow Light Snow
10:52 AM 35.1 °F 30.1 °F 33.1 °F 92% 29.26 in 6.0 mi West 5.8 mph - 0.01 in Snow Light Snow
11:52 AM 36.0 °F 30.3 °F 34.0 °F 93% 29.27 in 10.0 mi West 6.9 mph - 0.00 in   Overcast
12:23 PM 35.6 °F 29.9 °F 33.8 °F 93% 29.27 in 10.0 mi WSW 6.9 mph - N/A   Overcast
12:52 PM 36.0 °F 31.1 °F 34.0 °F 93% 29.29 in 10.0 mi Variable 5.8 mph - N/A   Overcast
1:52 PM 35.1 °F 29.3 °F 33.1 °F 92% 29.31 in 10.0 mi SW 6.9 mph - N/A   Overcast
2:50 PM 33.8 °F 27.7 °F 33.8 °F 100% 29.32 in 2.5 mi SSW 6.9 mph - 0.01 in Snow Light Snow
2:52 PM 34.0 °F 29.8 °F 33.1 °F 96% 29.34 in 2.5 mi SSW 4.6 mph - 0.01 in Snow Light Snow
3:09 PM 33.8 °F 27.7 °F 32.0 °F 93% 29.33 in 3.0 mi SW 6.9 mph - 0.01 in Snow Light Snow
3:35 PM 33.8 °F 29.6 °F 32.0 °F 93% 29.34 in 1.0 mi SSW 4.6 mph - 0.01 in Snow Light Snow
3:50 PM 33.8 °F 28.6 °F 32.0 °F 93% 29.35 in 2.0 mi SW 5.8 mph - 0.02 in Snow Light Snow
3:52 PM 34.0 °F 28.0 °F 32.0 °F 92% 29.36 in 2.5 mi SW 6.9 mph - 0.02 in Snow Light Snow
4:00 PM 33.8 °F 28.6 °F 33.8 °F 100% 29.35 in 5.0 mi SW 5.8 mph - 0.00 in Snow Light Snow
4:11 PM 33.8 °F 28.6 °F 32.0 °F 93% 29.36 in 5.0 mi SW 5.8 mph - 0.00 in Snow Light Snow
4:40 PM 33.8 °F 29.6 °F 33.8 °F 100% 29.36 in 5.0 mi SW 4.6 mph - 0.00 in Snow Light Snow
4:52 PM 34.0 °F 28.8 °F 33.1 °F 96% 29.39 in 6.0 mi SSW 5.8 mph - 0.00 in   Overcast
5:21 PM 33.8 °F 30.8 °F 33.8 °F 100% 29.38 in 2.5 mi SSW 3.5 mph - 0.00 in   Overcast
5:23 PM 33.8 °F 29.6 °F 33.8 °F 100% 29.38 in 3.0 mi SSW 4.6 mph - 0.00 in   Overcast
5:32 PM 35.6 °F 31.7 °F 33.8 °F 93% 29.38 in 4.0 mi SSW 4.6 mph - 0.00 in   Overcast
5:52 PM 34.0 °F 28.8 °F 33.1 °F 96% 29.41 in 8.0 mi SW 5.8 mph - 0.00 in   Overcast
5:59 PM 33.8 °F 30.8 °F 33.8 °F 100% 29.40 in 7.0 mi SSW 3.5 mph - N/A   Overcast
6:28 PM 33.8 °F 27.0 °F 33.8 °F 100% 29.40 in 5.0 mi SW 8.1 mph - N/A   Overcast
6:40 PM 33.8 °F 27.7 °F 32.0 °F 93% 29.41 in 5.0 mi SW 6.9 mph - N/A   Overcast
6:52 PM 34.0 °F 28.0 °F 32.0 °F 92% 29.43 in 5.0 mi SW 6.9 mph - N/A   Overcast
7:05 PM 33.8 °F 29.6 °F 32.0 °F 93% 29.42 in 6.0 mi SW 4.6 mph - N/A   Overcast
7:18 PM 33.8 °F 29.6 °F 32.0 °F 93% 29.42 in 3.0 mi WSW 4.6 mph - N/A   Overcast
7:28 PM 33.8 °F 27.7 °F 32.0 °F 93% 29.42 in 3.0 mi SW 6.9 mph - N/A   Overcast
7:52 PM 34.0 °F 28.8 °F 30.9 °F 89% 29.45 in 6.0 mi SSW 5.8 mph - N/A   Mostly Cloudy
8:04 PM 33.8 °F 29.6 °F 30.2 °F 87% 29.44 in 7.0 mi SW 4.6 mph - N/A   Overcast
8:13 PM 33.8 °F 29.6 °F 30.2 °F 87% 29.44 in 7.0 mi SW 4.6 mph - N/A   Mostly Cloudy
8:41 PM 33.8 °F - 30.2 °F 87% 29.46 in 8.0 mi Calm Calm - N/A   Overcast
8:52 PM 34.0 °F - 30.9 °F 89% 29.47 in 10.0 mi Calm Calm - N/A   Overcast
9:05 PM 33.8 °F 30.8 °F 30.2 °F 87% 29.46 in 10.0 mi SW 3.5 mph - N/A   Overcast
9:52 PM 34.0 °F 31.0 °F 30.9 °F 89% 29.49 in 10.0 mi SSW 3.5 mph - N/A   Overcast
10:31 PM 33.8 °F - 30.2 °F 87% 29.48 in 10.0 mi Calm Calm - N/A   Overcast
10:52 PM 34.0 °F - 32.0 °F 92% 29.50 in 10.0 mi Calm Calm - N/A   Overcast
11:52 PM 33.1 °F - 30.9 °F 92% 29.52 in 10.0 mi Calm Calm - N/A   Overcast